Simultaneous Nadir Overpasses (SNOs) Predictions

Prediction of SNOs between METOP-A and TERRA Satellite Orbit:

Table of predicted SNOs for the next 14.0 days since TLE Epoch: 6/15/2012
Index Date (METOP-A) Time (METOP-A) METOP-A Lat,Lon Date (TERRA) Time (TERRA) TERRA Lat,Lon Distance(km) Time Diff (sec)
1 06/17/2012 20:22:04 81.31, -78.45 06/17/2012 20:22:28 81.30, -78.54 1.64 24
2 06/17/2012 21:12:44 -81.31, 89.36 06/17/2012 21:11:54 -81.32, 89.41 1.04 50
3 06/20/2012 15:56:25 81.30, -12.19 06/20/2012 15:56:44 81.30, -12.09 1.82 19
4 06/20/2012 16:47:04 -81.32, 156.05 06/20/2012 16:46:10 -81.32, 155.88 2.74 54
5 06/23/2012 11:30:46 81.31, 54.45 06/23/2012 11:31:00 81.32, 54.61 2.85 14
6 06/23/2012 12:21:26 -81.31,-137.67 06/23/2012 12:20:27 -81.31,-137.78 1.94 59
7 06/26/2012 07:05:08 81.30, 120.69 06/26/2012 07:05:17 81.30, 120.78 1.50 9
8 06/26/2012 07:55:48 -81.31, -71.39 06/26/2012 07:54:43 -81.32, -71.22 3.16 65
9 06/29/2012 02:39:28 81.31,-172.68 06/29/2012 02:39:32 81.30,-172.82 2.36 4




NCC Satellite Simultaneous Nadir Overpasses (SNOs) Prediction Service
